Voltar ao catálogo

DELTA 1 DEB

AtivoSSO
NORAD 17765·DEBRIS·🇺🇸 United States

Lançado Mar 5, 1978 de Vandenberg Space Force Base

Loading…

Próximas Passagens (próximas 24 horas)

TLE

AtualizadoSource: Space-Track

Época: Sep 13, 2026, 18:27 UTC

1 17765U 78026GX  26256.76910771 -.00000004  00000-0  26998-4 0  9991
2 17765  99.0302 350.4278 0042197  54.6909  76.2227 13.98914694112347

Acompanhe DELTA 1 DEB em tempo real com AllMySat

Download on the App Store